TimeEDT,TemperatureF,Dew PointF,Humidity,Sea Level PressureIn,VisibilityMPH,Wind Direction,Wind SpeedMPH,Gust SpeedMPH,PrecipitationIn,Events,Conditions,WindDirDegrees,DateUTC
12:15 AM,55.4,51.8,88,30.18,10.0,East,4.6,-,N/A,,Unknown,80,2013-04-07 04:15:00
12:35 AM,55.4,51.8,88,30.18,10.0,East,3.5,-,N/A,,Unknown,80,2013-04-07 04:35:00
12:55 AM,55.4,51.8,88,30.17,10.0,East,4.6,-,N/A,,Unknown,80,2013-04-07 04:55:00
1:15 AM,53.6,51.8,94,30.16,10.0,East,5.8,-,N/A,,Unknown,80,2013-04-07 05:15:00
1:35 AM,55.4,51.8,88,30.16,10.0,East,4.6,-,N/A,,Unknown,90,2013-04-07 05:35:00
1:55 AM,55.4,53.6,94,30.16,10.0,East,4.6,-,N/A,,Unknown,80,2013-04-07 05:55:00
2:15 AM,55.4,53.6,94,30.15,10.0,ENE,4.6,-,N/A,,Mostly Cloudy,70,2013-04-07 06:15:00
2:35 AM,55.4,53.6,94,30.14,10.0,ENE,3.5,-,N/A,,Mostly Cloudy,70,2013-04-07 06:35:00
2:55 AM,55.4,53.6,94,30.14,10.0,Calm,Calm,-,N/A,,Mostly Cloudy,0,2013-04-07 06:55:00
3:15 AM,55.4,53.6,94,30.14,10.0,NE,3.5,-,N/A,,Mostly Cloudy,50,2013-04-07 07:15:00
3:35 AM,55.4,51.8,88,30.14,10.0,Calm,Calm,-,N/A,,Scattered Clouds,0,2013-04-07 07:35:00
3:55 AM,55.4,53.6,94,30.14,10.0,ENE,3.5,-,N/A,,Mostly Cloudy,60,2013-04-07 07:55:00
4:15 AM,55.4,53.6,94,30.14,10.0,NE,3.5,-,N/A,,Mostly Cloudy,50,2013-04-07 08:15:00
4:35 AM,55.4,53.6,94,30.14,10.0,NE,3.5,-,N/A,,Scattered Clouds,50,2013-04-07 08:35:00
4:55 AM,55.4,53.6,94,30.14,10.0,NE,3.5,-,N/A,,Scattered Clouds,50,2013-04-07 08:55:00
5:15 AM,55.4,53.6,94,30.14,10.0,ENE,3.5,-,N/A,,Clear,70,2013-04-07 09:15:00
5:35 AM,53.6,53.6,100,30.14,7.0,ENE,3.5,-,N/A,,Clear,70,2013-04-07 09:35:00
5:55 AM,53.6,51.8,94,30.14,7.0,Calm,Calm,-,N/A,,Clear,0,2013-04-07 09:55:00
6:15 AM,53.6,51.8,94,30.15,7.0,Calm,Calm,-,N/A,,Clear,0,2013-04-07 10:15:00
6:35 AM,53.6,51.8,94,30.15,7.0,ENE,3.5,-,N/A,,Clear,70,2013-04-07 10:35:00
6:55 AM,53.6,51.8,94,30.16,7.0,East,3.5,-,N/A,,Clear,90,2013-04-07 10:55:00
7:15 AM,53.6,51.8,94,30.16,7.0,Calm,Calm,-,N/A,,Unknown,0,2013-04-07 11:15:00
7:35 AM,53.6,51.8,94,30.17,7.0,East,3.5,-,N/A,,Unknown,80,2013-04-07 11:35:00
7:55 AM,53.6,53.6,100,30.18,7.0,Calm,Calm,-,N/A,,Unknown,0,2013-04-07 11:55:00
8:15 AM,55.4,55.4,100,30.18,7.0,East,3.5,-,N/A,,Unknown,90,2013-04-07 12:15:00
8:35 AM,59.0,55.4,88,30.18,7.0,East,5.8,-,N/A,,Unknown,100,2013-04-07 12:35:00
8:55 AM,60.8,57.2,88,30.19,7.0,East,6.9,-,N/A,,Unknown,80,2013-04-07 12:55:00
9:15 AM,62.6,57.2,82,30.19,10.0,East,5.8,-,N/A,,Clear,100,2013-04-07 13:15:00
9:35 AM,64.4,59.0,83,30.19,10.0,East,4.6,-,N/A,,Clear,100,2013-04-07 13:35:00
9:55 AM,66.2,59.0,78,30.20,10.0,ESE,6.9,-,N/A,,Clear,110,2013-04-07 13:55:00
10:15 AM,68.0,59.0,73,30.21,10.0,ESE,6.9,-,N/A,,Clear,120,2013-04-07 14:15:00
10:35 AM,69.8,60.8,73,30.21,10.0,SSE,4.6,-,N/A,,Clear,160,2013-04-07 14:35:00
10:55 AM,71.6,60.8,69,30.21,10.0,SSE,5.8,-,N/A,,Clear,150,2013-04-07 14:55:00
11:15 AM,69.8,60.8,73,30.21,10.0,South,4.6,-,N/A,,Scattered Clouds,170,2013-04-07 15:15:00
11:35 AM,73.4,60.8,65,30.20,10.0,SE,11.5,-,N/A,,Mostly Cloudy,140,2013-04-07 15:35:00
11:55 AM,75.2,60.8,61,30.20,10.0,South,8.1,-,N/A,,Mostly Cloudy,170,2013-04-07 15:55:00
12:15 PM,73.4,60.8,65,30.20,10.0,SSE,5.8,-,N/A,,Scattered Clouds,160,2013-04-07 16:15:00
12:35 PM,73.4,59.0,61,30.19,10.0,South,4.6,-,N/A,,Mostly Cloudy,190,2013-04-07 16:35:00
12:55 PM,73.4,59.0,61,30.19,10.0,SSW,9.2,-,N/A,,Overcast,210,2013-04-07 16:55:00
1:15 PM,73.4,59.0,61,30.18,10.0,South,8.1,-,N/A,,Overcast,180,2013-04-07 17:15:00
1:35 PM,73.4,57.2,57,30.17,10.0,SSW,5.8,-,N/A,,Mostly Cloudy,200,2013-04-07 17:35:00
1:55 PM,75.2,59.0,57,30.16,10.0,South,5.8,-,N/A,,Scattered Clouds,190,2013-04-07 17:55:00
2:15 PM,77.0,55.4,47,30.15,10.0,SW,4.6,-,N/A,,Scattered Clouds,220,2013-04-07 18:15:00
2:35 PM,78.8,57.2,47,30.14,10.0,SE,4.6,-,N/A,,Mostly Cloudy,140,2013-04-07 18:35:00
2:55 PM,77.0,57.2,50,30.13,10.0,SSW,6.9,-,N/A,,Overcast,210,2013-04-07 18:55:00
3:15 PM,75.2,55.4,50,30.12,10.0,SSW,4.6,-,N/A,,Overcast,210,2013-04-07 19:15:00
3:35 PM,77.0,57.2,50,30.11,10.0,SE,8.1,-,N/A,,Overcast,130,2013-04-07 19:35:00
3:55 PM,77.0,55.4,47,30.11,10.0,SE,5.8,-,N/A,,Overcast,130,2013-04-07 19:55:00
4:15 PM,77.0,57.2,50,30.10,10.0,SE,5.8,-,N/A,,Mostly Cloudy,130,2013-04-07 20:15:00
4:35 PM,75.2,57.2,53,30.10,10.0,East,8.1,-,N/A,,Overcast,100,2013-04-07 20:35:00
4:55 PM,75.2,59.0,57,30.10,10.0,SE,8.1,-,N/A,,Overcast,130,2013-04-07 20:55:00
5:15 PM,75.2,59.0,57,30.10,10.0,SE,6.9,-,N/A,,Mostly Cloudy,140,2013-04-07 21:15:00
5:35 PM,75.2,59.0,57,30.10,10.0,ESE,11.5,-,N/A,,Mostly Cloudy,120,2013-04-07 21:35:00
5:55 PM,75.2,57.2,53,30.10,10.0,ESE,8.1,-,N/A,,Mostly Cloudy,120,2013-04-07 21:55:00
6:15 PM,75.2,57.2,53,30.10,10.0,SSE,5.8,-,N/A,,Mostly Cloudy,150,2013-04-07 22:15:00
6:35 PM,75.2,59.0,57,30.10,10.0,ESE,13.8,17.3,N/A,,Scattered Clouds,120,2013-04-07 22:35:00
6:55 PM,73.4,59.0,61,30.10,10.0,SE,9.2,-,N/A,,Scattered Clouds,130,2013-04-07 22:55:00
7:15 PM,71.6,57.2,60,30.10,10.0,SE,10.4,-,N/A,,Scattered Clouds,130,2013-04-07 23:15:00
7:35 PM,71.6,57.2,60,30.10,10.0,SE,10.4,16.1,N/A,,Clear,130,2013-04-07 23:35:00
7:55 PM,69.8,57.2,64,30.11,10.0,SE,8.1,-,N/A,,Clear,140,2013-04-07 23:55:00
8:15 PM,69.8,57.2,64,30.11,10.0,SE,8.1,-,N/A,,Clear,130,2013-04-08 00:15:00
8:35 PM,68.0,57.2,68,30.12,10.0,ESE,9.2,-,N/A,,Clear,120,2013-04-08 00:35:00
8:55 PM,66.2,57.2,73,30.12,10.0,ESE,6.9,-,N/A,,Clear,120,2013-04-08 00:55:00
9:15 PM,66.2,57.2,73,30.13,10.0,ESE,4.6,-,N/A,,Clear,120,2013-04-08 01:15:00
9:35 PM,64.4,55.4,73,30.13,10.0,ESE,4.6,-,N/A,,Clear,110,2013-04-08 01:35:00
9:55 PM,64.4,55.4,73,30.14,10.0,ESE,3.5,-,N/A,,Clear,110,2013-04-08 01:55:00
10:15 PM,64.4,55.4,73,30.14,10.0,ESE,4.6,-,N/A,,Clear,110,2013-04-08 02:15:00
10:35 PM,62.6,55.4,77,30.14,10.0,ESE,4.6,-,N/A,,Clear,120,2013-04-08 02:35:00
10:55 PM,62.6,55.4,77,30.14,10.0,ESE,4.6,-,N/A,,Clear,110,2013-04-08 02:55:00
11:15 PM,60.8,55.4,82,30.14,10.0,ESE,4.6,-,N/A,,Clear,110,2013-04-08 03:15:00
11:35 PM,60.8,55.4,82,30.14,10.0,ESE,3.5,-,N/A,,Clear,120,2013-04-08 03:35:00
11:55 PM,60.8,55.4,82,30.13,10.0,SE,3.5,-,N/A,,Clear,130,2013-04-08 03:55:00